Time,TemperatureF,DewpointF,PressureIn,WindDirection,WindDirectionDegrees,WindSpeedMPH,WindSpeedGustMPH,Humidity,HourlyPrecipIn,Conditions,Clouds,dailyrainin,SolarRadiationWatts/m^2,SoftwareType,DateUTC
2013-01-21 00:00:00,34.3,11.9,30.01,NNW,328,0.0,6.0,39,0.00,,,0.00,0,WeatherCatV1.11B39,2013-01-21 05:00:00,
2013-01-21 00:01:00,34.1,11.8,30.01,NW,325,0.0,3.0,39,0.00,,,0.00,0,WeatherCatV1.11B39,2013-01-21 05:01:00,
2013-01-21 00:02:00,34.1,11.8,30.01,NW,325,0.0,1.0,39,0.00,,,0.00,0,WeatherCatV1.11B39,2013-01-21 05:02:00,
2013-01-21 00:07:00,34.0,12.2,30.01,NW,318,2.0,5.0,40,0.00,,,0.00,0,WeatherCatV1.11B39,2013-01-21 05:07:00,
2013-01-21 00:12:00,34.0,11.7,30.01,WNW,301,2.0,6.0,39,0.00,,,0.00,0,WeatherCatV1.11B39,2013-01-21 05:12:00,
2013-01-21 00:17:00,33.8,12.1,30.01,NW,319,0.0,3.0,40,0.00,,,0.00,0,WeatherCatV1.11B39,2013-01-21 05:17:00,
2013-01-21 00:22:00,33.7,12.0,30.01,North,350,7.0,7.0,40,0.00,,,0.00,0,WeatherCatV1.11B39,2013-01-21 05:22:00,
2013-01-21 00:27:00,33.5,12.4,30.01,NW,309,1.0,5.0,41,0.00,,,0.00,0,WeatherCatV1.11B39,2013-01-21 05:27:00,
2013-01-21 00:32:00,33.4,12.3,30.01,WNW,302,1.0,1.0,41,0.00,,,0.00,0,WeatherCatV1.11B39,2013-01-21 05:32:00,
2013-01-21 00:37:00,33.2,12.6,30.01,WNW,302,0.0,2.0,42,0.00,,,0.00,0,WeatherCatV1.11B39,2013-01-21 05:37:00,
2013-01-21 00:42:00,32.9,13.4,30.01,NW,316,0.0,0.0,44,0.00,,,0.00,0,WeatherCatV1.11B39,2013-01-21 05:42:00,
2013-01-21 00:47:00,32.7,12.2,30.02,NW,306,2.0,3.0,42,0.00,,,0.00,0,WeatherCatV1.11B39,2013-01-21 05:47:00,
2013-01-21 00:52:00,32.5,12.5,30.02,WNW,295,3.0,3.0,43,0.00,,,0.00,0,WeatherCatV1.11B39,2013-01-21 05:52:00,
2013-01-21 00:57:00,32.5,12.5,30.02,NW,315,2.0,4.0,43,0.00,,,0.00,0,WeatherCatV1.11B39,2013-01-21 05:57:00,
2013-01-21 01:02:00,32.5,12.5,30.01,NW,312,0.0,3.0,43,0.00,,,0.00,0,WeatherCatV1.11B39,2013-01-21 06:02:00,
2013-01-21 01:07:00,32.5,12.5,30.01,NW,309,0.0,0.0,43,0.00,,,0.00,0,WeatherCatV1.11B39,2013-01-21 06:07:00,
2013-01-21 01:12:00,32.4,12.4,30.01,NW,309,0.0,0.0,43,0.00,,,0.00,0,WeatherCatV1.11B39,2013-01-21 06:12:00,
2013-01-21 01:17:00,32.4,12.9,30.01,NNW,339,0.0,0.0,44,0.00,,,0.00,0,WeatherCatV1.11B39,2013-01-21 06:17:00,
2013-01-21 01:22:00,32.4,12.4,30.01,NW,320,0.0,6.0,43,0.00,,,0.00,0,WeatherCatV1.11B39,2013-01-21 06:22:00,
2013-01-21 01:27:00,32.2,12.8,30.01,NW,322,0.0,0.0,44,0.00,,,0.00,0,WeatherCatV1.11B39,2013-01-21 06:27:00,
2013-01-21 01:32:00,31.9,13.0,30.02,NW,322,0.0,0.0,45,0.00,,,0.00,0,WeatherCatV1.11B39,2013-01-21 06:32:00,
2013-01-21 01:37:00,31.3,12.9,30.02,NW,322,0.0,0.0,46,0.00,,,0.00,0,WeatherCatV1.11B39,2013-01-21 06:37:00,
2013-01-21 01:42:00,31.2,12.9,30.02,NW,322,0.0,0.0,46,0.00,,,0.00,0,WeatherCatV1.11B39,2013-01-21 06:42:00,
2013-01-21 01:47:00,31.2,12.9,30.03,NW,322,0.0,0.0,46,0.00,,,0.00,0,WeatherCatV1.11B39,2013-01-21 06:47:00,
2013-01-21 01:52:00,31.2,12.9,30.03,NW,322,0.0,0.0,46,0.00,,,0.00,0,WeatherCatV1.11B39,2013-01-21 06:52:00,
2013-01-21 01:57:00,31.0,13.2,30.03,NW,322,0.0,0.0,47,0.00,,,0.00,0,WeatherCatV1.11B39,2013-01-21 06:57:00,
2013-01-21 02:02:00,30.9,13.1,30.03,NW,322,1.0,2.0,47,0.00,,,0.00,0,WeatherCatV1.11B39,2013-01-21 07:02:00,
2013-01-21 02:07:00,30.7,13.4,30.03,NW,322,0.0,0.0,48,0.00,,,0.00,0,WeatherCatV1.11B39,2013-01-21 07:07:00,
2013-01-21 02:12:00,30.7,13.4,30.03,NW,322,0.0,1.0,48,0.00,,,0.00,0,WeatherCatV1.11B39,2013-01-21 07:12:00,
2013-01-21 02:17:00,30.6,13.3,30.03,NNW,340,0.0,3.0,48,0.00,,,0.00,0,WeatherCatV1.11B39,2013-01-21 07:17:00,
2013-01-21 02:22:00,30.4,13.1,30.03,NNW,344,1.0,5.0,48,0.00,,,0.00,0,WeatherCatV1.11B39,2013-01-21 07:22:00,
2013-01-21 02:27:00,30.3,13.5,30.03,NNW,347,2.0,4.0,49,0.00,,,0.00,0,WeatherCatV1.11B39,2013-01-21 07:27:00,
2013-01-21 02:32:00,30.3,13.5,30.03,North,356,0.0,0.0,49,0.00,,,0.00,0,WeatherCatV1.11B39,2013-01-21 07:32:00,
2013-01-21 02:37:00,30.3,13.9,30.03,North,356,0.0,0.0,50,0.00,,,0.00,0,WeatherCatV1.11B39,2013-01-21 07:37:00,
2013-01-21 02:42:00,30.4,14.0,30.03,North,356,0.0,0.0,50,0.00,,,0.00,0,WeatherCatV1.11B39,2013-01-21 07:42:00,
2013-01-21 02:47:00,30.4,14.0,30.03,North,356,0.0,0.0,50,0.00,,,0.00,0,WeatherCatV1.11B39,2013-01-21 07:47:00,
2013-01-21 02:52:00,30.6,14.2,30.03,North,357,0.0,2.0,50,0.00,,,0.00,0,WeatherCatV1.11B39,2013-01-21 07:52:00,
2013-01-21 02:57:00,30.4,14.0,30.03,North,359,0.0,0.0,50,0.00,,,0.00,0,WeatherCatV1.11B39,2013-01-21 07:57:00,
2013-01-21 03:02:00,30.1,13.7,30.02,NNE,17,0.0,2.0,50,0.00,,,0.00,0,WeatherCatV1.11B39,2013-01-21 08:02:00,
2013-01-21 03:07:00,30.1,14.2,30.02,NNE,31,0.0,5.0,51,0.00,,,0.00,0,WeatherCatV1.11B39,2013-01-21 08:07:00,
2013-01-21 03:12:00,30.1,13.3,30.02,NNE,21,1.0,5.0,49,0.00,,,0.00,0,WeatherCatV1.11B39,2013-01-21 08:12:00,
2013-01-21 03:17:00,30.3,13.5,30.02,North,11,5.0,7.0,49,0.00,,,0.00,0,WeatherCatV1.11B39,2013-01-21 08:17:00,
2013-01-21 03:22:00,30.3,13.9,30.02,NE,35,2.0,5.0,50,0.00,,,0.00,0,WeatherCatV1.11B39,2013-01-21 08:22:00,
2013-01-21 03:27:00,30.3,13.5,30.02,North,359,0.0,4.0,49,0.00,,,0.00,0,WeatherCatV1.11B39,2013-01-21 08:27:00,
2013-01-21 03:32:00,30.3,13.9,30.01,North,353,6.0,7.0,50,0.00,,,0.00,0,WeatherCatV1.11B39,2013-01-21 08:32:00,
2013-01-21 03:37:00,30.1,13.7,30.01,North,359,6.0,6.0,50,0.00,,,0.00,0,WeatherCatV1.11B39,2013-01-21 08:37:00,
2013-01-21 03:42:00,30.0,14.1,30.01,North,3,1.0,5.0,51,0.00,,,0.00,0,WeatherCatV1.11B39,2013-01-21 08:42:00,
2013-01-21 03:47:00,30.0,14.1,30.01,NNE,13,2.0,5.0,51,0.00,,,0.00,0,WeatherCatV1.11B39,2013-01-21 08:47:00,
2013-01-21 03:52:00,30.0,14.5,30.01,North,7,1.0,3.0,52,0.00,,,0.00,0,WeatherCatV1.11B39,2013-01-21 08:52:00,
2013-01-21 03:57:00,30.0,14.5,30.01,NNE,14,0.0,5.0,52,0.00,,,0.00,0,WeatherCatV1.11B39,2013-01-21 08:57:00,
2013-01-21 04:02:00,29.8,13.9,30.01,NE,41,0.0,0.0,51,0.00,,,0.00,0,WeatherCatV1.11B39,2013-01-21 09:02:00,
2013-01-21 04:07:00,29.8,13.9,30.01,NE,49,0.0,0.0,51,0.00,,,0.00,0,WeatherCatV1.11B39,2013-01-21 09:07:00,
2013-01-21 04:12:00,29.7,14.3,30.01,NE,38,5.0,5.0,52,0.00,,,0.00,0,WeatherCatV1.11B39,2013-01-21 09:12:00,
2013-01-21 04:17:00,29.4,14.4,30.00,NE,42,0.0,0.0,53,0.00,,,0.00,0,WeatherCatV1.11B39,2013-01-21 09:17:00,
2013-01-21 04:22:00,29.4,14.0,30.00,NE,42,2.0,3.0,52,0.00,,,0.00,0,WeatherCatV1.11B39,2013-01-21 09:22:00,
2013-01-21 04:27:00,29.3,14.3,30.00,NE,42,0.0,3.0,53,0.00,,,0.00,0,WeatherCatV1.11B39,2013-01-21 09:27:00,
2013-01-21 04:32:00,29.1,14.6,30.00,NE,42,1.0,3.0,54,0.00,,,0.00,0,WeatherCatV1.11B39,2013-01-21 09:32:00,
2013-01-21 04:37:00,29.1,15.4,30.00,NE,42,2.0,2.0,56,0.00,,,0.00,0,WeatherCatV1.11B39,2013-01-21 09:37:00,
2013-01-21 04:42:00,28.8,15.9,30.00,NE,42,1.0,2.0,58,0.00,,,0.00,0,WeatherCatV1.11B39,2013-01-21 09:42:00,
2013-01-21 04:47:00,28.8,15.5,30.00,NE,44,0.0,0.0,57,0.00,,,0.00,0,WeatherCatV1.11B39,2013-01-21 09:47:00,
2013-01-21 04:52:00,28.8,15.5,30.00,NE,38,0.0,0.0,57,0.00,,,0.00,0,WeatherCatV1.11B39,2013-01-21 09:52:00,
2013-01-21 04:57:00,28.8,15.5,30.00,NE,38,0.0,0.0,57,0.00,,,0.00,0,WeatherCatV1.11B39,2013-01-21 09:57:00,
2013-01-21 05:02:00,28.8,15.5,30.00,NE,38,0.0,0.0,57,0.00,,,0.00,0,WeatherCatV1.11B39,2013-01-21 10:02:00,
2013-01-21 05:07:00,28.8,15.5,30.00,NE,38,0.0,0.0,57,0.00,,,0.00,0,WeatherCatV1.11B39,2013-01-21 10:07:00,
2013-01-21 05:12:00,28.8,15.9,30.00,NE,38,0.0,0.0,58,0.00,,,0.00,0,WeatherCatV1.11B39,2013-01-21 10:12:00,
2013-01-21 05:20:00,28.4,15.5,30.01,NE,44,0.0,2.0,58,0.00,,,0.00,0,WeatherCatV1.11B39,2013-01-21 10:20:00,
2013-01-21 05:25:00,28.1,15.6,30.01,NE,51,0.0,0.0,59,0.00,,,0.00,0,WeatherCatV1.11B39,2013-01-21 10:25:00,
2013-01-21 05:30:00,27.8,15.4,30.01,NE,41,0.0,0.0,59,0.00,,,0.00,0,WeatherCatV1.11B39,2013-01-21 10:30:00,
2013-01-21 05:35:00,27.6,15.2,30.01,NE,41,0.0,0.0,59,0.00,,,0.00,0,WeatherCatV1.11B39,2013-01-21 10:35:00,
2013-01-21 05:40:00,27.8,15.4,30.01,NE,41,0.0,0.0,59,0.00,,,0.00,0,WeatherCatV1.11B39,2013-01-21 10:40:00,
2013-01-21 05:45:00,27.8,15.7,30.01,NE,41,0.0,0.0,60,0.00,,,0.00,0,WeatherCatV1.11B39,2013-01-21 10:45:00,
2013-01-21 05:50:00,27.8,15.4,30.01,NE,41,0.0,0.0,59,0.00,,,0.00,0,WeatherCatV1.11B39,2013-01-21 10:50:00,
2013-01-21 05:55:00,27.6,15.2,30.01,NE,41,0.0,0.0,59,0.00,,,0.00,0,WeatherCatV1.11B39,2013-01-21 10:55:00,
2013-01-21 06:00:00,27.5,14.7,30.02,NE,42,0.0,0.0,58,0.00,,,0.00,0,WeatherCatV1.11B39,2013-01-21 11:00:00,
2013-01-21 06:05:00,27.3,14.5,30.02,NE,41,0.0,0.0,58,0.00,,,0.00,0,WeatherCatV1.11B39,2013-01-21 11:05:00,
2013-01-21 06:10:00,27.5,14.7,30.02,NE,41,0.0,0.0,58,0.00,,,0.00,0,WeatherCatV1.11B39,2013-01-21 11:10:00,
2013-01-21 06:15:00,27.6,14.8,30.02,NE,41,0.0,0.0,58,0.00,,,0.00,0,WeatherCatV1.11B39,2013-01-21 11:15:00,
2013-01-21 06:20:00,27.9,15.1,30.02,NE,41,0.0,0.0,58,0.00,,,0.00,0,WeatherCatV1.11B39,2013-01-21 11:20:00,
2013-01-21 06:25:00,28.1,14.9,30.02,NE,41,0.0,0.0,57,0.00,,,0.00,0,WeatherCatV1.11B39,2013-01-21 11:25:00,
2013-01-21 06:30:00,28.2,14.9,30.02,NE,41,0.0,0.0,57,0.00,,,0.00,0,WeatherCatV1.11B39,2013-01-21 11:30:00,
2013-01-21 06:35:00,28.1,14.9,30.02,NE,41,0.0,0.0,57,0.00,,,0.00,0,WeatherCatV1.11B39,2013-01-21 11:35:00,
2013-01-21 06:40:00,27.9,14.7,30.02,NE,42,0.0,0.0,57,0.00,,,0.00,0,WeatherCatV1.11B39,2013-01-21 11:40:00,
2013-01-21 06:45:00,27.6,14.0,30.02,NE,41,0.0,0.0,56,0.00,,,0.00,0,WeatherCatV1.11B39,2013-01-21 11:45:00,
2013-01-21 06:50:00,27.5,13.9,30.02,NE,42,0.0,0.0,56,0.00,,,0.00,0,WeatherCatV1.11B39,2013-01-21 11:50:00,
2013-01-21 06:55:00,27.5,13.9,30.02,NE,42,0.0,0.0,56,0.00,,,0.00,0,WeatherCatV1.11B39,2013-01-21 11:55:00,
2013-01-21 07:00:00,27.8,14.2,30.02,NE,41,0.0,0.0,56,0.00,,,0.00,0,WeatherCatV1.11B39,2013-01-21 12:00:00,
2013-01-21 07:05:00,28.1,14.0,30.02,NE,41,0.0,0.0,55,0.00,,,0.00,0,WeatherCatV1.11B39,2013-01-21 12:05:00,
2013-01-21 07:10:00,28.4,14.3,30.02,NE,41,0.0,0.0,55,0.00,,,0.00,0,WeatherCatV1.11B39,2013-01-21 12:10:00,
2013-01-21 07:15:00,28.2,14.1,30.02,NE,52,0.0,0.0,55,0.00,,,0.00,0,WeatherCatV1.11B39,2013-01-21 12:15:00,
2013-01-21 07:20:00,27.8,13.8,30.02,NE,44,0.0,0.0,55,0.00,,,0.00,0,WeatherCatV1.11B39,2013-01-21 12:20:00,
2013-01-21 07:25:00,27.6,13.2,30.02,NE,48,0.0,0.0,54,0.00,,,0.00,5,WeatherCatV1.11B39,2013-01-21 12:25:00,
2013-01-21 07:30:00,27.5,13.5,30.02,NE,48,0.0,0.0,55,0.00,,,0.00,5,WeatherCatV1.11B39,2013-01-21 12:30:00,
2013-01-21 07:35:00,27.5,13.5,30.02,NE,48,0.0,0.0,55,0.00,,,0.00,5,WeatherCatV1.11B39,2013-01-21 12:35:00,
2013-01-21 07:40:00,27.8,14.6,30.02,NE,48,0.0,0.0,57,0.00,,,0.00,7,WeatherCatV1.11B39,2013-01-21 12:40:00,
2013-01-21 07:45:00,28.2,14.9,30.02,NE,48,0.0,0.0,57,0.00,,,0.00,9,WeatherCatV1.11B39,2013-01-21 12:45:00,
2013-01-21 07:50:00,28.1,13.6,30.02,NE,48,0.0,0.0,54,0.00,,,0.00,9,WeatherCatV1.11B39,2013-01-21 12:50:00,
2013-01-21 07:55:00,27.8,12.9,30.02,NE,48,0.0,2.0,53,0.00,,,0.00,11,WeatherCatV1.11B39,2013-01-21 12:55:00,
2013-01-21 08:00:00,27.6,12.7,30.02,NE,48,0.0,0.0,53,0.00,,,0.00,12,WeatherCatV1.11B39,2013-01-21 13:00:00,
2013-01-21 08:05:00,27.6,13.2,30.02,NE,48,0.0,0.0,54,0.00,,,0.00,14,WeatherCatV1.11B39,2013-01-21 13:05:00,
2013-01-21 08:10:00,27.8,13.3,30.02,NE,48,0.0,0.0,54,0.00,,,0.00,18,WeatherCatV1.11B39,2013-01-21 13:10:00,
2013-01-21 08:15:00,27.9,13.9,30.01,NE,48,1.0,3.0,55,0.00,,,0.00,19,WeatherCatV1.11B39,2013-01-21 13:15:00,
2013-01-21 08:20:00,27.9,13.9,30.01,NE,49,0.0,0.0,55,0.00,,,0.00,23,WeatherCatV1.11B39,2013-01-21 13:20:00,
2013-01-21 08:25:00,27.9,13.4,30.01,NE,48,0.0,0.0,54,0.00,,,0.00,28,WeatherCatV1.11B39,2013-01-21 13:25:00,
2013-01-21 08:30:00,28.2,13.3,30.02,NE,48,0.0,0.0,53,0.00,,,0.00,28,WeatherCatV1.11B39,2013-01-21 13:30:00,
2013-01-21 08:35:00,28.5,13.6,30.02,NE,48,0.0,0.0,53,0.00,,,0.00,30,WeatherCatV1.11B39,2013-01-21 13:35:00,
2013-01-21 08:40:00,29.3,13.9,30.02,NE,48,0.0,0.0,52,0.00,,,0.00,32,WeatherCatV1.11B39,2013-01-21 13:40:00,
2013-01-21 08:45:00,29.8,14.3,30.02,NE,48,0.0,0.0,52,0.00,,,0.00,35,WeatherCatV1.11B39,2013-01-21 13:45:00,
2013-01-21 08:50:00,30.4,15.3,30.02,NE,48,0.0,0.0,53,0.00,,,0.00,39,WeatherCatV1.11B39,2013-01-21 13:50:00,
2013-01-21 08:55:00,31.0,15.5,30.02,NE,48,0.0,0.0,52,0.00,,,0.00,40,WeatherCatV1.11B39,2013-01-21 13:55:00,
2013-01-21 09:00:00,31.3,16.2,30.02,NE,48,0.0,0.0,53,0.00,,,0.00,40,WeatherCatV1.11B39,2013-01-21 14:00:00,
2013-01-21 09:05:00,31.3,14.8,30.02,NE,48,0.0,0.0,50,0.00,,,0.00,49,WeatherCatV1.11B39,2013-01-21 14:05:00,
2013-01-21 09:10:00,30.7,14.3,30.02,NE,49,0.0,0.0,50,0.00,,,0.00,55,WeatherCatV1.11B39,2013-01-21 14:10:00,
2013-01-21 09:15:00,30.7,15.2,30.01,NE,48,0.0,0.0,52,0.00,,,0.00,58,WeatherCatV1.11B39,2013-01-21 14:15:00,
2013-01-21 09:20:00,31.5,15.5,30.01,NE,48,0.0,0.0,51,0.00,,,0.00,60,WeatherCatV1.11B39,2013-01-21 14:20:00,
2013-01-21 09:25:00,31.3,14.8,30.01,NE,48,0.0,0.0,50,0.00,,,0.00,69,WeatherCatV1.11B39,2013-01-21 14:25:00,
2013-01-21 09:30:00,31.6,15.6,30.01,NE,48,0.0,0.0,51,0.00,,,0.00,77,WeatherCatV1.11B39,2013-01-21 14:30:00,
2013-01-21 09:35:00,31.2,14.3,30.01,NE,48,0.0,0.0,49,0.00,,,0.00,81,WeatherCatV1.11B39,2013-01-21 14:35:00,
2013-01-21 09:40:00,30.6,14.2,30.01,NE,48,0.0,0.0,50,0.00,,,0.00,91,WeatherCatV1.11B39,2013-01-21 14:40:00,
2013-01-21 09:45:00,30.6,14.2,30.01,NE,49,0.0,0.0,50,0.00,,,0.00,102,WeatherCatV1.11B39,2013-01-21 14:45:00,
2013-01-21 09:50:00,30.9,14.5,30.01,NE,48,0.0,0.0,50,0.00,,,0.00,114,WeatherCatV1.11B39,2013-01-21 14:50:00,
2013-01-21 09:55:00,31.8,15.3,30.01,NE,48,0.0,0.0,50,0.00,,,0.00,120,WeatherCatV1.11B39,2013-01-21 14:55:00,
2013-01-21 10:00:00,31.2,14.3,30.00,East,97,2.0,3.0,49,0.00,,,0.00,109,WeatherCatV1.11B39,2013-01-21 15:00:00,
2013-01-21 10:05:00,31.0,15.0,30.00,East,97,0.0,2.0,51,0.00,,,0.00,109,WeatherCatV1.11B39,2013-01-21 15:05:00,
2013-01-21 10:10:00,30.9,14.9,30.00,East,100,0.0,2.0,51,0.00,,,0.00,134,WeatherCatV1.11B39,2013-01-21 15:10:00,
2013-01-21 10:15:00,30.9,14.9,30.00,SSE,155,1.0,4.0,51,0.00,,,0.00,169,WeatherCatV1.11B39,2013-01-21 15:15:00,
2013-01-21 10:20:00,30.7,15.2,30.00,SSE,157,0.0,2.0,52,0.00,,,0.00,150,WeatherCatV1.11B39,2013-01-21 15:20:00,
2013-01-21 10:25:00,31.0,15.0,30.00,SSE,157,0.0,0.0,51,0.00,,,0.00,148,WeatherCatV1.11B39,2013-01-21 15:25:00,
2013-01-21 10:30:00,31.2,15.2,29.99,SSE,157,1.0,1.0,51,0.00,,,0.00,148,WeatherCatV1.11B39,2013-01-21 15:30:00,
2013-01-21 10:35:00,31.0,15.0,29.99,SSE,158,0.0,2.0,51,0.00,,,0.00,157,WeatherCatV1.11B39,2013-01-21 15:35:00,
2013-01-21 10:40:00,31.0,15.5,29.99,SE,140,1.0,4.0,52,0.00,,,0.00,162,WeatherCatV1.11B39,2013-01-21 15:40:00,
2013-01-21 10:45:00,31.0,15.9,29.99,SE,144,2.0,3.0,53,0.00,,,0.00,192,WeatherCatV1.11B39,2013-01-21 15:45:00,
2013-01-21 10:50:00,31.3,16.2,29.99,SSE,150,1.0,5.0,53,0.00,,,0.00,197,WeatherCatV1.11B39,2013-01-21 15:50:00,
2013-01-21 10:55:00,31.6,16.0,29.99,SE,134,1.0,4.0,52,0.00,,,0.00,201,WeatherCatV1.11B39,2013-01-21 15:55:00,
2013-01-21 11:00:00,31.8,17.1,29.97,SSE,151,6.0,6.0,54,0.00,,,0.00,195,WeatherCatV1.11B39,2013-01-21 16:00:00,
2013-01-21 11:05:00,31.8,16.2,29.97,SSE,150,5.0,6.0,52,0.00,,,0.00,253,WeatherCatV1.11B39,2013-01-21 16:05:00,
2013-01-21 11:10:00,32.1,16.9,29.97,South,191,10.0,10.0,53,0.00,,,0.00,292,WeatherCatV1.11B39,2013-01-21 16:10:00,
2013-01-21 11:15:00,32.1,16.0,29.96,South,169,2.0,10.0,51,0.00,,,0.00,246,WeatherCatV1.11B39,2013-01-21 16:15:00,
2013-01-21 11:20:00,32.7,16.6,29.96,SSW,196,3.0,7.0,51,0.00,,,0.00,211,WeatherCatV1.11B39,2013-01-21 16:20:00,
2013-01-21 11:25:00,32.9,15.9,29.96,South,186,1.0,7.0,49,0.00,,,0.00,165,WeatherCatV1.11B39,2013-01-21 16:25:00,
2013-01-21 11:30:00,32.8,16.7,29.95,South,169,2.0,6.0,51,0.00,,,0.00,150,WeatherCatV1.11B39,2013-01-21 16:30:00,
2013-01-21 11:35:00,32.8,16.2,29.95,SSW,202,3.0,6.0,50,0.00,,,0.00,135,WeatherCatV1.11B39,2013-01-21 16:35:00,
2013-01-21 11:40:00,33.1,16.5,29.95,South,189,3.0,5.0,50,0.00,,,0.00,125,WeatherCatV1.11B39,2013-01-21 16:40:00,
2013-01-21 11:45:00,33.1,17.0,29.93,SSW,196,1.0,6.0,51,0.00,,,0.00,143,WeatherCatV1.11B39,2013-01-21 16:45:00,
2013-01-21 11:50:00,33.2,17.1,29.93,South,189,3.0,8.0,51,0.00,,,0.00,139,WeatherCatV1.11B39,2013-01-21 16:50:00,
2013-01-21 11:55:00,33.4,16.8,29.93,SSW,198,0.0,4.0,50,0.00,,,0.00,123,WeatherCatV1.11B39,2013-01-21 16:55:00,
2013-01-21 12:00:00,33.2,17.1,29.92,SSE,167,4.0,7.0,51,0.00,,,0.00,179,WeatherCatV1.11B39,2013-01-21 17:00:00,
2013-01-21 12:05:00,33.1,17.0,29.92,South,185,3.0,5.0,51,0.00,,,0.00,185,WeatherCatV1.11B39,2013-01-21 17:05:00,
2013-01-21 12:10:00,33.7,18.0,29.92,South,189,0.0,6.0,52,0.00,,,0.00,197,WeatherCatV1.11B39,2013-01-21 17:10:00,
2013-01-21 12:15:00,34.1,17.9,29.90,South,188,0.0,2.0,51,0.00,,,0.00,234,WeatherCatV1.11B39,2013-01-21 17:15:00,
2013-01-21 12:20:00,34.7,18.0,29.90,South,189,0.0,6.0,50,0.00,,,0.00,188,WeatherCatV1.11B39,2013-01-21 17:20:00,
2013-01-21 12:25:00,34.6,17.9,29.90,South,172,3.0,6.0,50,0.00,,,0.00,192,WeatherCatV1.11B39,2013-01-21 17:25:00,
2013-01-21 12:30:00,34.6,17.9,29.88,South,172,2.0,6.0,50,0.00,,,0.00,165,WeatherCatV1.11B39,2013-01-21 17:30:00,
2013-01-21 12:35:00,34.4,18.2,29.88,South,182,4.0,6.0,51,0.00,,,0.00,165,WeatherCatV1.11B39,2013-01-21 17:35:00,
2013-01-21 12:40:00,34.9,18.2,29.88,South,189,2.0,5.0,50,0.00,,,0.00,158,WeatherCatV1.11B39,2013-01-21 17:40:00,
2013-01-21 12:45:00,34.6,18.8,29.88,SW,217,7.0,7.0,52,0.00,,,0.00,123,WeatherCatV1.11B39,2013-01-21 17:45:00,
2013-01-21 12:50:00,34.9,18.6,29.88,South,188,3.0,9.0,51,0.00,,,0.00,114,WeatherCatV1.11B39,2013-01-21 17:50:00,
2013-01-21 12:55:00,34.6,18.8,29.88,SE,128,8.0,11.0,52,0.00,,,0.00,109,WeatherCatV1.11B39,2013-01-21 17:55:00,
2013-01-21 13:00:00,34.3,18.1,29.86,SSE,161,7.0,12.0,51,0.00,,,0.00,97,WeatherCatV1.11B39,2013-01-21 18:00:00,
2013-01-21 13:05:00,34.9,18.6,29.86,SSW,198,3.0,6.0,51,0.00,,,0.00,113,WeatherCatV1.11B39,2013-01-21 18:05:00,
2013-01-21 13:10:00,35.0,18.7,29.86,SSW,192,3.0,7.0,51,0.00,,,0.00,135,WeatherCatV1.11B39,2013-01-21 18:10:00,
2013-01-21 13:15:00,35.2,18.9,29.85,SSE,161,2.0,6.0,51,0.00,,,0.00,143,WeatherCatV1.11B39,2013-01-21 18:15:00,
2013-01-21 13:20:00,35.2,18.4,29.85,South,178,12.0,13.0,50,0.00,,,0.00,139,WeatherCatV1.11B39,2013-01-21 18:20:00,
2013-01-21 13:25:00,35.5,18.7,29.85,South,175,3.0,10.0,50,0.00,,,0.00,153,WeatherCatV1.11B39,2013-01-21 18:25:00,
2013-01-21 13:30:00,35.8,18.5,29.84,SSW,192,7.0,8.0,49,0.00,,,0.00,178,WeatherCatV1.11B39,2013-01-21 18:30:00,
2013-01-21 13:35:00,35.8,18.1,29.84,SSE,168,3.0,12.0,48,0.00,,,0.00,195,WeatherCatV1.11B39,2013-01-21 18:35:00,
2013-01-21 13:40:00,36.0,19.2,29.84,South,169,6.0,9.0,50,0.00,,,0.00,192,WeatherCatV1.11B39,2013-01-21 18:40:00,
2013-01-21 13:45:00,36.3,19.0,29.83,SSE,152,7.0,8.0,49,0.00,,,0.00,174,WeatherCatV1.11B39,2013-01-21 18:45:00,
2013-01-21 13:50:00,36.3,19.0,29.83,South,181,5.0,8.0,49,0.00,,,0.00,222,WeatherCatV1.11B39,2013-01-21 18:50:00,
2013-01-21 13:55:00,36.3,19.0,29.83,South,175,1.0,7.0,49,0.00,,,0.00,229,WeatherCatV1.11B39,2013-01-21 18:55:00,
2013-01-21 14:00:00,37.2,20.3,29.81,SSW,192,1.0,5.0,50,0.00,,,0.00,202,WeatherCatV1.11B39,2013-01-21 19:00:00,
2013-01-21 14:05:00,37.5,19.6,29.81,WSW,251,2.0,12.0,48,0.00,,,0.00,394,WeatherCatV1.11B39,2013-01-21 19:05:00,
2013-01-21 14:10:00,38.2,19.8,29.81,SSW,195,7.0,9.0,47,0.00,,,0.00,377,WeatherCatV1.11B39,2013-01-21 19:10:00,
2013-01-21 14:15:00,38.3,18.8,29.80,SSE,165,4.0,11.0,45,0.00,,,0.00,371,WeatherCatV1.11B39,2013-01-21 19:15:00,
2013-01-21 14:20:00,38.0,19.6,29.80,SSW,195,5.0,14.0,47,0.00,,,0.00,361,WeatherCatV1.11B39,2013-01-21 19:20:00,
2013-01-21 14:25:00,38.0,19.6,29.80,South,181,3.0,12.0,47,0.00,,,0.00,352,WeatherCatV1.11B39,2013-01-21 19:25:00,
2013-01-21 14:30:00,38.6,19.6,29.78,SSW,203,2.0,6.0,46,0.00,,,0.00,343,WeatherCatV1.11B39,2013-01-21 19:30:00,
2013-01-21 14:36:00,39.2,19.7,29.78,SSE,161,0.0,13.0,45,0.00,,,0.00,334,WeatherCatV1.11B39,2013-01-21 19:36:00,
2013-01-21 14:41:00,39.3,19.8,29.78,South,186,3.0,6.0,45,0.00,,,0.00,324,WeatherCatV1.11B39,2013-01-21 19:41:00,
2013-01-21 14:46:00,39.8,19.7,29.77,SW,222,7.0,10.0,44,0.00,,,0.00,313,WeatherCatV1.11B39,2013-01-21 19:46:00,
2013-01-21 14:51:00,39.9,20.3,29.77,SSE,157,2.0,7.0,45,0.00,,,0.00,306,WeatherCatV1.11B39,2013-01-21 19:51:00,
2013-01-21 14:56:00,39.9,20.8,29.77,South,169,5.0,8.0,46,0.00,,,0.00,297,WeatherCatV1.11B39,2013-01-21 19:56:00,
2013-01-21 15:01:00,39.5,21.0,29.76,East,100,2.0,8.0,47,0.00,,,0.00,290,WeatherCatV1.11B39,2013-01-21 20:01:00,
2013-01-21 15:06:00,39.3,20.3,29.76,South,171,5.0,7.0,46,0.00,,,0.00,278,WeatherCatV1.11B39,2013-01-21 20:06:00,
2013-01-21 15:11:00,39.6,20.0,29.76,SSE,161,2.0,3.0,45,0.00,,,0.00,267,WeatherCatV1.11B39,2013-01-21 20:11:00,
2013-01-21 15:16:00,40.5,20.3,29.76,South,178,1.0,3.0,44,0.00,,,0.00,257,WeatherCatV1.11B39,2013-01-21 20:16:00,
2013-01-21 15:21:00,41.5,20.7,29.76,South,184,3.0,6.0,43,0.00,,,0.00,245,WeatherCatV1.11B39,2013-01-21 20:21:00,
2013-01-21 15:26:00,41.6,21.3,29.76,SSW,196,3.0,8.0,44,0.00,,,0.00,232,WeatherCatV1.11B39,2013-01-21 20:26:00,
2013-01-21 15:31:00,41.3,21.0,29.75,SW,227,6.0,7.0,44,0.00,,,0.00,70,WeatherCatV1.11B39,2013-01-21 20:31:00,
2013-01-21 15:36:00,40.9,20.1,29.75,SSW,193,0.0,6.0,43,0.00,,,0.00,223,WeatherCatV1.11B39,2013-01-21 20:36:00,
2013-01-21 15:41:00,41.2,21.5,29.75,SW,234,2.0,6.0,45,0.00,,,0.00,222,WeatherCatV1.11B39,2013-01-21 20:41:00,
2013-01-21 15:46:00,41.8,21.5,29.75,SW,233,5.0,6.0,44,0.00,,,0.00,192,WeatherCatV1.11B39,2013-01-21 20:46:00,
2013-01-21 15:51:00,41.8,21.0,29.75,SW,227,5.0,7.0,43,0.00,,,0.00,51,WeatherCatV1.11B39,2013-01-21 20:51:00,
2013-01-21 15:56:00,41.2,21.0,29.75,SSW,200,6.0,7.0,44,0.00,,,0.00,99,WeatherCatV1.11B39,2013-01-21 20:56:00,
2013-01-21 16:01:00,41.2,22.5,29.75,SW,220,3.0,6.0,47,0.00,,,0.00,141,WeatherCatV1.11B39,2013-01-21 21:01:00,
2013-01-21 16:06:00,41.3,21.6,29.75,SSW,198,2.0,5.0,45,0.00,,,0.00,62,WeatherCatV1.11B39,2013-01-21 21:06:00,
2013-01-21 16:11:00,41.2,22.0,29.75,SSW,202,0.0,2.0,46,0.00,,,0.00,46,WeatherCatV1.11B39,2013-01-21 21:11:00,
2013-01-21 16:16:00,40.9,22.2,29.75,SSW,202,2.0,3.0,47,0.00,,,0.00,37,WeatherCatV1.11B39,2013-01-21 21:16:00,
2013-01-21 16:21:00,40.6,21.5,29.75,SSW,202,0.0,2.0,46,0.00,,,0.00,28,WeatherCatV1.11B39,2013-01-21 21:21:00,
2013-01-21 16:26:00,40.3,21.2,29.75,SSW,202,1.0,3.0,46,0.00,,,0.00,23,WeatherCatV1.11B39,2013-01-21 21:26:00,
2013-01-21 16:31:00,40.1,22.0,29.75,SSW,202,1.0,2.0,48,0.00,,,0.00,23,WeatherCatV1.11B39,2013-01-21 21:31:00,
2013-01-21 16:36:00,39.9,21.3,29.75,NW,304,1.0,3.0,47,0.00,,,0.00,18,WeatherCatV1.11B39,2013-01-21 21:36:00,
2013-01-21 16:41:00,39.6,21.0,29.75,WNW,298,5.0,7.0,47,0.00,,,0.00,19,WeatherCatV1.11B39,2013-01-21 21:41:00,
2013-01-21 16:46:00,39.3,20.8,29.77,WNW,298,4.0,6.0,47,0.00,,,0.00,21,WeatherCatV1.11B39,2013-01-21 21:46:00,
2013-01-21 16:51:00,39.3,20.8,29.77,NW,305,3.0,4.0,47,0.00,,,0.00,30,WeatherCatV1.11B39,2013-01-21 21:51:00,
2013-01-21 16:56:00,39.5,21.0,29.77,WNW,301,4.0,5.0,47,0.00,,,0.00,40,WeatherCatV1.11B39,2013-01-21 21:56:00,
2013-01-21 17:01:00,39.6,20.5,29.77,NW,306,1.0,5.0,46,0.00,,,0.00,30,WeatherCatV1.11B39,2013-01-21 22:01:00,
2013-01-21 17:06:00,39.6,20.5,29.77,NW,306,0.0,0.0,46,0.00,,,0.00,19,WeatherCatV1.11B39,2013-01-21 22:06:00,
2013-01-21 17:11:00,39.5,21.0,29.77,NW,306,1.0,3.0,47,0.00,,,0.00,18,WeatherCatV1.11B39,2013-01-21 22:11:00,
2013-01-21 17:16:00,39.3,20.8,29.77,NW,306,0.0,0.0,47,0.00,,,0.00,14,WeatherCatV1.11B39,2013-01-21 22:16:00,
2013-01-21 17:21:00,39.2,20.2,29.77,NW,306,0.0,0.0,46,0.00,,,0.00,11,WeatherCatV1.11B39,2013-01-21 22:21:00,
2013-01-21 17:26:00,39.1,20.6,29.77,NW,306,0.0,0.0,47,0.00,,,0.00,0,WeatherCatV1.11B39,2013-01-21 22:26:00,
2013-01-21 17:31:00,38.6,20.1,29.78,NW,326,0.0,6.0,47,0.00,,,0.00,0,WeatherCatV1.11B39,2013-01-21 22:31:00,
2013-01-21 17:36:00,38.5,20.5,29.78,WNW,292,3.0,6.0,48,0.00,,,0.00,0,WeatherCatV1.11B39,2013-01-21 22:36:00,
2013-01-21 17:41:00,38.2,19.3,29.78,WNW,291,3.0,7.0,46,0.00,,,0.00,0,WeatherCatV1.11B39,2013-01-21 22:41:00,
2013-01-21 17:46:00,38.2,18.8,29.79,WNW,295,5.0,10.0,45,0.00,,,0.00,0,WeatherCatV1.11B39,2013-01-21 22:46:00,
2013-01-21 17:51:00,38.3,17.8,29.79,North,353,6.0,9.0,43,0.00,,,0.00,0,WeatherCatV1.11B39,2013-01-21 22:51:00,
2013-01-21 17:56:00,38.2,17.7,29.79,WNW,302,3.0,8.0,43,0.00,,,0.00,0,WeatherCatV1.11B39,2013-01-21 22:56:00,
2013-01-21 18:01:00,38.2,16.0,29.80,North,353,14.0,14.0,40,0.00,,,0.00,0,WeatherCatV1.11B39,2013-01-21 23:01:00,
2013-01-21 18:06:00,37.8,13.9,29.80,NW,309,5.0,10.0,37,0.00,,,0.00,0,WeatherCatV1.11B39,2013-01-21 23:06:00,
2013-01-21 18:11:00,37.5,13.0,29.80,WNW,292,11.0,13.0,36,0.00,,,0.00,0,WeatherCatV1.11B39,2013-01-21 23:11:00,
2013-01-21 18:16:00,36.8,12.4,29.82,West,270,10.0,26.0,36,0.00,,,0.00,0,WeatherCatV1.11B39,2013-01-21 23:16:00,
2013-01-21 18:21:00,36.3,13.7,29.82,WNW,299,10.0,24.0,39,0.00,,,0.00,0,WeatherCatV1.11B39,2013-01-21 23:21:00,
2013-01-21 18:26:00,35.6,12.5,29.82,NW,318,14.0,24.0,38,0.00,,,0.00,0,WeatherCatV1.11B39,2013-01-21 23:26:00,
2013-01-21 18:31:00,35.3,12.8,29.83,WNW,285,15.0,16.0,39,0.00,,,0.00,0,WeatherCatV1.11B39,2013-01-21 23:31:00,
2013-01-21 18:36:00,35.2,12.8,29.83,WNW,287,18.0,19.0,39,0.00,,,0.00,0,WeatherCatV1.11B39,2013-01-21 23:36:00,
2013-01-21 18:41:00,35.2,12.8,29.83,West,280,8.0,21.0,39,0.00,,,0.00,0,WeatherCatV1.11B39,2013-01-21 23:41:00,
2013-01-21 18:46:00,34.9,13.6,29.83,West,265,9.0,14.0,41,0.00,,,0.00,0,WeatherCatV1.11B39,2013-01-21 23:46:00,
2013-01-21 18:51:00,34.4,13.2,29.83,NNW,339,19.0,26.0,41,0.00,,,0.00,0,WeatherCatV1.11B39,2013-01-21 23:51:00,
2013-01-21 18:56:00,34.0,13.3,29.83,West,275,7.0,17.0,42,0.00,,,0.00,0,WeatherCatV1.11B39,2013-01-21 23:56:00,
2013-01-21 19:01:00,33.7,12.5,29.84,West,271,7.0,17.0,41,0.00,,,0.00,0,WeatherCatV1.11B39,2013-01-22 00:01:00,
2013-01-21 19:06:00,33.5,12.9,29.84,West,281,8.0,12.0,42,0.00,,,0.00,0,WeatherCatV1.11B39,2013-01-22 00:06:00,
2013-01-21 19:11:00,33.4,13.3,29.84,West,272,6.0,14.0,43,0.00,,,0.00,0,WeatherCatV1.11B39,2013-01-22 00:11:00,
2013-01-21 19:16:00,33.2,14.2,29.84,NW,313,16.0,16.0,45,0.00,,,0.00,0,WeatherCatV1.11B39,2013-01-22 00:16:00,
2013-01-21 19:21:00,33.1,13.6,29.84,NW,305,13.0,17.0,44,0.00,,,0.00,0,WeatherCatV1.11B39,2013-01-22 00:21:00,
2013-01-21 19:26:00,32.9,14.9,29.84,West,272,10.0,19.0,47,0.00,,,0.00,0,WeatherCatV1.11B39,2013-01-22 00:26:00,
2013-01-21 19:31:00,32.8,14.8,29.84,NNW,332,10.0,13.0,47,0.00,,,0.00,0,WeatherCatV1.11B39,2013-01-22 00:31:00,
2013-01-21 19:36:00,32.5,15.0,29.84,NNW,336,2.0,8.0,48,0.00,,,0.00,0,WeatherCatV1.11B39,2013-01-22 00:36:00,
2013-01-21 19:41:00,32.2,14.3,29.84,WNW,284,12.0,16.0,47,0.00,,,0.00,0,WeatherCatV1.11B39,2013-01-22 00:41:00,
2013-01-21 19:46:00,32.1,14.6,29.84,NNW,343,5.0,28.0,48,0.00,,,0.00,0,WeatherCatV1.11B39,2013-01-22 00:46:00,
2013-01-21 19:51:00,31.8,14.4,29.84,WNW,296,11.0,22.0,48,0.00,,,0.00,0,WeatherCatV1.11B39,2013-01-22 00:51:00,
2013-01-21 19:56:00,31.6,14.2,29.84,NW,313,10.0,11.0,48,0.00,,,0.00,0,WeatherCatV1.11B39,2013-01-22 00:56:00,
2013-01-21 20:01:00,31.5,13.6,29.84,West,277,4.0,9.0,47,0.00,,,0.00,0,WeatherCatV1.11B39,2013-01-22 01:01:00,
2013-01-21 20:06:00,31.5,12.1,29.84,WNW,295,13.0,25.0,44,0.00,,,0.00,0,WeatherCatV1.11B39,2013-01-22 01:06:00,
2013-01-21 20:11:00,31.3,11.9,29.84,WNW,299,21.0,21.0,44,0.00,,,0.00,0,WeatherCatV1.11B39,2013-01-22 01:11:00,
2013-01-21 20:16:00,31.5,12.1,29.83,NW,306,18.0,29.0,44,0.00,,,0.00,0,WeatherCatV1.11B39,2013-01-22 01:16:00,
2013-01-21 20:21:00,31.3,12.9,29.83,WNW,282,11.0,26.0,46,0.00,,,0.00,0,WeatherCatV1.11B39,2013-01-22 01:21:00,
2013-01-21 20:26:00,31.2,13.8,29.83,NW,316,19.0,19.0,48,0.00,,,0.00,0,WeatherCatV1.11B39,2013-01-22 01:26:00,
2013-01-21 20:31:00,31.0,12.7,29.84,West,280,11.0,19.0,46,0.00,,,0.00,0,WeatherCatV1.11B39,2013-01-22 01:31:00,
2013-01-21 20:36:00,30.7,13.4,29.84,WNW,295,12.0,17.0,48,0.00,,,0.00,0,WeatherCatV1.11B39,2013-01-22 01:36:00,
2013-01-21 20:41:00,30.6,13.3,29.84,NW,304,11.0,11.0,48,0.00,,,0.00,0,WeatherCatV1.11B39,2013-01-22 01:41:00,
2013-01-21 20:46:00,30.6,13.3,29.85,NW,304,5.0,8.0,48,0.00,,,0.00,0,WeatherCatV1.11B39,2013-01-22 01:46:00,
2013-01-21 20:51:00,30.4,14.0,29.85,WNW,284,3.0,3.0,50,0.00,,,0.00,0,WeatherCatV1.11B39,2013-01-22 01:51:00,
2013-01-21 20:56:00,30.1,13.7,29.85,NW,308,5.0,14.0,50,0.00,,,0.00,0,WeatherCatV1.11B39,2013-01-22 01:56:00,
2013-01-21 21:01:00,30.0,13.2,29.85,West,280,4.0,10.0,49,0.00,,,0.00,0,WeatherCatV1.11B39,2013-01-22 02:01:00,
2013-01-21 21:06:00,30.0,13.2,29.85,West,278,10.0,12.0,49,0.00,,,0.00,0,WeatherCatV1.11B39,2013-01-22 02:06:00,
2013-01-21 21:11:00,30.0,13.2,29.85,WNW,299,8.0,18.0,49,0.00,,,0.00,0,WeatherCatV1.11B39,2013-01-22 02:11:00,
2013-01-21 21:16:00,29.8,12.5,29.85,NW,309,6.0,16.0,48,0.00,,,0.00,0,WeatherCatV1.11B39,2013-01-22 02:16:00,
2013-01-21 21:21:00,29.8,12.1,29.85,West,281,11.0,19.0,47,0.00,,,0.00,0,WeatherCatV1.11B39,2013-01-22 02:21:00,
2013-01-21 21:26:00,29.7,12.4,29.85,NNW,328,6.0,13.0,48,0.00,,,0.00,0,WeatherCatV1.11B39,2013-01-22 02:26:00,
2013-01-21 21:31:00,29.7,12.4,29.86,WNW,292,12.0,18.0,48,0.00,,,0.00,0,WeatherCatV1.11B39,2013-01-22 02:31:00,
2013-01-21 21:36:00,29.5,12.3,29.86,West,263,12.0,25.0,48,0.00,,,0.00,0,WeatherCatV1.11B39,2013-01-22 02:36:00,
2013-01-21 21:41:00,29.4,12.2,29.86,West,275,6.0,12.0,48,0.00,,,0.00,0,WeatherCatV1.11B39,2013-01-22 02:41:00,
2013-01-21 21:46:00,29.3,10.6,29.87,West,272,7.0,20.0,45,0.00,,,0.00,0,WeatherCatV1.11B39,2013-01-22 02:46:00,
2013-01-21 21:51:00,29.1,9.9,29.87,WNW,298,19.0,21.0,44,0.00,,,0.00,0,WeatherCatV1.11B39,2013-01-22 02:51:00,
2013-01-21 21:56:00,29.0,10.4,29.87,West,275,12.0,19.0,45,0.00,,,0.00,0,WeatherCatV1.11B39,2013-01-22 02:56:00,
2013-01-21 22:01:00,29.0,8.3,29.87,WNW,292,17.0,26.0,41,0.00,,,0.00,0,WeatherCatV1.11B39,2013-01-22 03:01:00,
2013-01-21 22:06:00,28.8,8.6,29.87,WNW,287,6.0,18.0,42,0.00,,,0.00,0,WeatherCatV1.11B39,2013-01-22 03:06:00,
2013-01-21 22:11:00,28.7,8.5,29.87,NW,313,12.0,19.0,42,0.00,,,0.00,0,WeatherCatV1.11B39,2013-01-22 03:11:00,
2013-01-21 22:16:00,28.7,8.5,29.87,West,260,5.0,21.0,42,0.00,,,0.00,0,WeatherCatV1.11B39,2013-01-22 03:16:00,
2013-01-21 22:21:00,28.5,7.8,29.87,West,270,3.0,17.0,41,0.00,,,0.00,0,WeatherCatV1.11B39,2013-01-22 03:21:00,
2013-01-21 22:26:00,28.5,8.9,29.87,WNW,284,7.0,16.0,43,0.00,,,0.00,0,WeatherCatV1.11B39,2013-01-22 03:26:00,
2013-01-21 22:31:00,28.4,9.3,29.87,WSW,258,6.0,12.0,44,0.00,,,0.00,0,WeatherCatV1.11B39,2013-01-22 03:31:00,
2013-01-21 22:36:00,28.4,8.8,29.87,West,268,5.0,18.0,43,0.00,,,0.00,0,WeatherCatV1.11B39,2013-01-22 03:36:00,
2013-01-21 22:41:00,28.5,9.4,29.87,West,263,10.0,17.0,44,0.00,,,0.00,0,WeatherCatV1.11B39,2013-01-22 03:41:00,
2013-01-21 22:46:00,28.4,9.3,29.88,West,275,7.0,19.0,44,0.00,,,0.00,0,WeatherCatV1.11B39,2013-01-22 03:46:00,
2013-01-21 22:51:00,28.4,8.8,29.88,WSW,248,14.0,30.0,43,0.00,,,0.00,0,WeatherCatV1.11B39,2013-01-22 03:51:00,
2013-01-21 22:56:00,28.1,7.5,29.88,West,265,14.0,26.0,41,0.00,,,0.00,0,WeatherCatV1.11B39,2013-01-22 03:56:00,
2013-01-21 23:01:00,27.9,6.7,29.88,West,272,10.0,26.0,40,0.00,,,0.00,0,WeatherCatV1.11B39,2013-01-22 04:01:00,
2013-01-21 23:06:00,27.8,6.7,29.88,WSW,258,18.0,21.0,40,0.00,,,0.00,0,WeatherCatV1.11B39,2013-01-22 04:06:00,
2013-01-21 23:11:00,27.6,7.0,29.88,West,272,19.0,25.0,41,0.00,,,0.00,0,WeatherCatV1.11B39,2013-01-22 04:11:00,
2013-01-21 23:16:00,27.5,6.9,29.88,West,270,16.0,22.0,41,0.00,,,0.00,0,WeatherCatV1.11B39,2013-01-22 04:16:00,
2013-01-21 23:21:00,27.5,8.0,29.88,NNW,342,13.0,19.0,43,0.00,,,0.00,0,WeatherCatV1.11B39,2013-01-22 04:21:00,
2013-01-21 23:26:00,27.3,7.3,29.88,WNW,296,8.0,21.0,42,0.00,,,0.00,0,WeatherCatV1.11B39,2013-01-22 04:26:00,
2013-01-21 23:31:00,27.2,8.2,29.89,WNW,298,10.0,16.0,44,0.00,,,0.00,0,WeatherCatV1.11B39,2013-01-22 04:31:00,
2013-01-21 23:36:00,26.9,7.4,29.89,NW,308,10.0,26.0,43,0.00,,,0.00,0,WeatherCatV1.11B39,2013-01-22 04:36:00,
2013-01-21 23:41:00,26.6,6.6,29.89,NW,319,14.0,32.0,42,0.00,,,0.00,0,WeatherCatV1.11B39,2013-01-22 04:41:00,
2013-01-21 23:46:00,26.0,5.6,29.89,WNW,292,17.0,24.0,41,0.00,,,0.00,0,WeatherCatV1.11B39,2013-01-22 04:46:00,
2013-01-21 23:51:00,26.0,5.6,29.89,West,275,8.0,21.0,41,0.00,,,0.00,0,WeatherCatV1.11B39,2013-01-22 04:51:00,
2013-01-21 23:56:00,25.8,3.7,29.89,WNW,288,26.0,32.0,38,0.00,,,0.00,0,WeatherCatV1.11B39,2013-01-22 04:56:00,